#timestamp,LO_Frequency,Hit 
1502668815.6,286047011.4,N
1502668835.4,286047011.2,N
1502668855.3,286047012.0,N
1502668875.1,286047011.6,N
1502668876.0,286047011.6,N
1502668895.8,286047009.3,N
1502668915.7,286047007.9,N
1502668935.5,286047010.3,N
1502668955.3,286047008.3,N
1502668975.1,286047013.8,N
1502668995.9,286047015.4,N
1502669015.7,286047012.1,N
1502669035.5,286047009.3,N
1502669055.4,286047012.7,N
1502669075.2,286047014.3,P
1502669095.0,286047006.2,N
1502669095.9,286047006.2,N
1502669115.8,286047007.4,N
1502669135.6,286047006.4,N
1502669155.4,286047004.6,N
1502669175.3,286047005.5,N
1502669195.1,286047003.5,N
1502669196.0,286047003.5,N
1502669215.8,286047003.0,N
1502669235.7,286047004.0,N
1502669255.5,286047005.7,N
1502669275.3,286047006.8,N
1502669295.2,286047006.9,N
1502669315.9,286047004.9,N
1502669335.7,286047006.8,N
1502669355.5,286047006.1,N
1502669375.4,286047005.8,N
1502669395.2,286047002.9,N
1502669415.0,286047004.3,N
1502669415.9,286047004.3,N
1502669435.8,286047003.7,N
1502669455.6,286047004.1,N
1502669475.4,286047002.0,N
1502669495.3,286047001.3,N
1502669515.1,286047007.1,N
1502669516.0,286047007.1,N
1502669535.8,286047004.5,N
1502669555.7,286047005.4,N
1502669575.5,286047005.5,N
1502669595.3,286047002.0,N
1502669615.2,286047003.7,N
1502669635.9,286047005.4,P
1502669655.7,286046998.6,P
1502669675.6,286046997.0,N
1502669695.4,286046995.1,N
1502669715.2,286046997.0,N
1502669735.1,286046999.0,N
1502669736.0,286046999.0,N
1502669755.8,286047001.2,N
1502669775.6,286047002.7,N
1502669795.4,286046999.7,N
1502669815.3,286046999.2,N
1502669835.1,286047001.5,N
1502669855.8,286047004.3,N
1502669875.7,286047004.0,N
1502669895.5,286047001.3,N
1502669915.3,286047003.0,N
1502669935.2,286047001.4,N
1502669955.9,286047002.1,N
1502669975.7,286047005.8,N
1502669995.6,286047006.7,N
1502670015.4,286047006.0,N
1502670035.2,286047003.4,N
1502670055.0,286047001.5,N
1502670055.9,286047001.5,N
1502670075.8,286047003.3,N
1502670095.6,286047002.0,N
1502670115.4,286047000.3,N
1502670135.3,286047004.4,N
1502670155.1,286047010.2,P
1502670175.8,286047010.5,N
1502670195.7,286047005.2,N
1502670215.5,286047002.9,N
1502670235.3,286047003.6,N
1502670255.2,286046998.2,N
1502670275.9,286046998.6,N
1502670295.7,286046998.6,N
1502670315.6,286046998.6,N
1502670335.4,286046998.1,N
1502670355.2,286046998.2,N
1502670375.1,286047001.9,N
1502670376.0,286047001.9,N
1502670395.8,286047002.1,N
1502670415.6,286046999.8,N
1502670435.5,286047000.9,N
1502670455.3,286046998.2,N
1502670475.1,286046999.5,N
1502670495.8,286046998.4,N
1502670515.7,286046993.7,N
1502670535.5,286046990.2,N
1502670555.3,286046992.3,N
1502670575.2,286046995.7,N
1502670595.9,286046993.9,N
1502670615.7,286046994.6,N
1502670635.6,286046996.0,N
1502670655.4,286046993.5,N
1502670675.2,286046995.1,N
1502670695.1,286046998.9,N
1502670696.0,286046998.9,N
1502670715.8,286046997.0,N
1502670735.6,286046997.8,N
1502670755.4,286046993.5,N
1502670775.3,286046996.3,N
1502670795.1,286046996.4,N
1502670815.8,286046992.9,N
1502670835.7,286046994.5,N
1502670855.5,286046990.1,P
1502670875.3,286046995.5,N
1502670895.2,286046995.8,N
1502670915.0,286046998.7,N
1502670915.9,286046998.7,N
1502670935.7,286046997.2,N
1502670955.6,286046999.4,N
1502670975.4,286047002.7,N
1502670995.2,286047005.4,N
1502671015.1,286047005.7,N
1502671016.0,286047005.7,N
1502671035.8,286047007.6,N
1502671055.6,286047007.2,N
1502671075.5,286047002.9,N
1502671095.3,286047005.4,N
1502671115.1,286047003.9,N
1502671135.9,286047003.0,N
1502671155.7,286047001.8,N
1502671175.5,286047002.3,N
1502671195.4,286047004.0,N
1502671215.2,286047003.9,N
1502671235.0,286047001.8,N
1502671235.9,286047001.8,N
1502671255.8,286047003.7,N
1502671275.6,286047005.9,N
1502671295.4,286047005.9,N
1502671315.2,286047005.4,N
1502671335.1,286047001.8,N
1502671336.0,286047001.8,N
1502671355.8,286047000.2,N
1502671375.6,286046998.6,N
1502671395.5,286046997.2,N
1502671415.3,286047002.3,N
1502671435.1,286047002.2,N
1502671455.9,286047003.2,N
1502671475.7,286047002.0,N
1502671495.5,286047002.5,N
1502671515.4,286047001.8,N
1502671535.2,286047002.6,N
1502671555.0,286047002.3,N
1502671555.9,286047002.3,N
1502671575.8,286047000.1,N
1502671595.6,286047000.4,N
1502671615.4,286047000.2,N
1502671635.2,286047004.3,N
1502671655.1,286047002.8,N
1502671656.0,286047002.8,N
1502671675.8,286047001.4,N
1502671695.6,286047001.8,N
1502671715.5,286047001.5,N
1502671735.3,286047000.0,N
1502671755.1,286046999.1,N
1502671775.9,286046999.9,N
1502671795.7,286047003.4,N
1502671815.5,286047005.3,N
1502671835.4,286047005.8,N
1502671855.2,286047005.9,P
1502671875.0,286047004.4,N
1502671875.9,286047004.4,N
1502671895.8,286047004.3,N
1502671915.6,286047003.9,N
1502671935.4,286047003.3,N
1502671955.3,286047005.9,P
1502671975.1,286047002.9,P
1502671995.8,286047004.4,P
1502672015.7,286047003.2,N
1502672035.5,286047003.2,N
1502672055.3,286047000.5,N
1502672075.2,286046999.4,N
1502672095.9,286046996.5,N
1502672115.7,286046999.3,N
1502672135.6,286047001.6,N
1502672155.4,286047003.8,N
1502672175.2,286047001.6,N
1502672195.1,286047002.9,N
1502672196.0,286047002.9,N
1502672215.8,286047003.0,N
1502672235.6,286047002.4,N
1502672255.4,286047003.4,N
1502672275.3,286047004.7,N
1502672295.1,286047006.0,N
1502672315.8,286047003.9,N
1502672335.7,286047004.3,N
1502672355.5,286047004.2,N
1502672375.3,286047000.6,N
1502672395.2,286047002.4,N
